Regional Weather Roundup
Issued by NWS

Home | Current Version | Previous Version | Text Only | Print | Product List | Glossary On
Versions: 1 2 3 4 5 6 7 8 9 10 11 12 13 14 15 16 17 18 19 20 21 22 23 24 25 26 27 28 29 30 31 32 33 34 35 36 37 38 39 40 41 42 43 44 45 46 47 48 49 50
000
ASUS43 KLMK 192310
RWRKY
KENTUCKY REGIONAL WEATHER ROUNDUP
NATIONAL WEATHER SERVICE LOUISVILLE KY
700 PM EDT TUE SEP 19 2017

NOTE "FAIR" INDICATES FEW OR NO CLOUDS BELOW 12,000 FEET
WITH NO SIGNIFICANT WEATHER AND/OR OBSTRUCTIONS TO VISIBILITY.

KYZ001>023-026-027-061>063-070>075-200000-
WESTERN AND SOUTH CENTRAL KENTUCKY

CITY           SKY/WX    TMP DP  RH WIND       PRES   REMARKS
PADUCAH        SUNNY     85  68  56 SW3       29.88S
HENDERSON      CLEAR     83  69  62 NE5       29.90
OWENSBORO      PTCLDY    82  69  64 SW3       29.92R
HOPKINSVILLE   CLEAR     85  68  58 W3        29.91R
BOWLING GREEN  MOCLDY    81  73  76 SE10      29.93R
GLASGOW        CLOUDY    79  68  69 S5        29.94F
$$

KYZ024-025-028>034-038-045-046-053-200000-
NORTH CENTRAL KENTUCKY

CITY           SKY/WX    TMP DP  RH WIND       PRES   REMARKS
LOUISVILLE/SDF PTCLDY    76  68  76 SE3       29.94S
LOUISVILLE/LOU PTCLDY    75  70  84 S3        29.94S
FORT KNOX      CLEAR     75  70  84 NE3       29.93S
$$

KYZ035>037-039>044-047>052-055>060-089>105-200000-
NORTHEAST KENTUCKY

CITY           SKY/WX    TMP DP  RH WIND       PRES   REMARKS
LEXINGTON      MOCLDY    75  69  81 N5        29.96R
COVINGTON      MOCLDY    75  69  81 S8        29.95R
FRANKFORT      CLOUDY    74  67  78 CALM      29.95R
$$

KYZ054-064>069-076>088-106>120-200000-
SOUTHEAST KENTUCKY

CITY           SKY/WX    TMP DP  RH WIND       PRES   REMARKS
JACKSON        CLOUDY    74  68  81 CALM      29.98S
LONDON         MOCLDY    75  70  84 S5        29.97S
SOMERSET       PTCLDY    73  68  83 CALM      29.98S
MIDDLESBORO    MOCLDY    75  67  76 W3        29.98F
MONTICELLO     CLOUDY   N/A N/A N/A NE7       29.98F
$$





USA.gov is the U.S. government's official web portal to all federal, state and local government web resources and services.